Content
SEND FEEDBACK

Daily
Averages
Monthly
Summary
United States of America

YIGO, GUAM


Home > North America > United States > Guam
Elevation: 162 meters     Latitude: 13 32N     Longitude: 144 53E

WEATHER
 
SELECT A DAY
Number of Records: 208,860;   Date Range: 1/1/95 - 7/20/14
 
SHARE

PRINT THIS DATA

[ ← Previous Day ]
WEATHER ALMANAC - 6 APRIL, 2013
[ Next Day → ]
[ °F ]   °C
Weather ElementAverageHighLow
Temperature28.5 °C31.1 °C (11:54 am)26.7 °C (1:54 am)
Dewpoint21.3 °C21.7 °C (4:54 am)20.6 °C (1:54 pm)
Humidity65.6 %74 % (4:54 am)53 % (1:54 pm)
Barometer1009.8 hPa1011.5 hPa (8:54 am)1007.8 hPa (2:54 pm)
Wind Speed15.3 km/h25.9 km/h (12:54 pm)
Wind Gust40.7 km/h (1:54 pm)
Weather ElementAverage
Visibility16.1 km
Wind DirectionE (88.3 °)

Weather ElementTotal
Precipitation---
Cooling Degree Days10.6 (Base 18.3)
Growing Degree Days18.9 (Base 10)
Averaged from 23 records on 6 April, 2013
WEATHER CONDITIONS BREAKOUT
WIND DIRECTION BREAKOUT
WEATHER BY HOUR - 6 APRIL, 2013
[ °F ]   °C
Local TimeTemperatureDewpointHumidityBarometerVisibilityWind DirectionWind SpeedGust SpeedPrecipitationEventsConditions
1:54 AM26.7 °C21.1 °C71 %1010.8 hPa16.1 kmEast (90°)13 km/hClear
2:54 AM26.7 °C21.1 °C71 %1010.2 hPa16.1 kmENE (70°)11.1 km/hClear
3:54 AM26.7 °C21.1 °C71 %1009.8 hPa16.1 kmENE (70°)13 km/hClear
4:54 AM26.7 °C21.7 °C74 %1009.8 hPa16.1 kmEast (80°)9.3 km/hClear
5:54 AM26.7 °C21.7 °C74 %1010.2 hPa16.1 kmENE (70°)13 km/hClear
6:54 AM26.7 °C21.1 °C71 %1010.5 hPa16.1 kmEast (80°)9.3 km/hClear
7:54 AM28.3 °C21.7 °C67 %1011.2 hPa16.1 kmENE (70°)16.7 km/hPartly Cloudy
8:54 AM29.4 °C21.1 °C61 %1011.5 hPa16.1 kmEast (90°)22.2 km/hPartly Cloudy
9:54 AM30.6 °C21.1 °C57 %1011.2 hPa16.1 kmENE (70°)24.1 km/h35.2 km/hScattered Clouds
10:54 AM30.6 °C21.1 °C57 %1010.8 hPa16.1 kmEast (80°)22.2 km/hPartly Cloudy
11:54 AM31.1 °C21.7 °C57 %1010.2 hPa16.1 kmEast (90°)22.2 km/h35.2 km/hScattered Clouds
12:54 PM31.1 °C21.1 °C55 %1009.5 hPa16.1 kmENE (70°)25.9 km/hScattered Clouds
1:54 PM31.1 °C20.6 °C53 %1008.5 hPa16.1 kmEast (90°)24.1 km/h40.7 km/hPartly Cloudy
2:54 PM30.6 °C21.1 °C57 %1007.8 hPa16.1 kmEast (100°)24.1 km/hPartly Cloudy
3:54 PM30 °C21.1 °C59 %1007.8 hPa16.1 kmEast (90°)16.7 km/h31.5 km/hScattered Clouds
4:54 PM30 °C21.7 °C61 %1007.8 hPa16.1 kmESE (110°)16.7 km/hPartly Cloudy
5:54 PM28.9 °C21.1 °C63 %1008.8 hPa16.1 kmEast (90°)18.5 km/hPartly Cloudy
6:54 PM27.8 °C21.1 °C67 %1009.1 hPa16.1 kmEast (90°)9.3 km/hPartly Cloudy
7:54 PM27.2 °C21.7 °C72 %1009.8 hPa16.1 kmEast (90°)9.3 km/hPartly Cloudy
8:54 PM27.2 °C21.7 °C72 %1010.5 hPa16.1 kmESE (110°)9.3 km/hPartly Cloudy
9:54 PM27.2 °C21.7 °C72 %1010.8 hPa16.1 kmEast (100°)7.4 km/hPartly Cloudy
10:54 PM27.2 °C21.7 °C72 %1011.2 hPa16.1 kmESE (110°)9.3 km/hPartly Cloudy
11:54 PM26.7 °C21.7 °C74 %1010.8 hPa16.1 kmESE (120°)5.6 km/hPartly Cloudy
Hourly data recorded from PGUM, located 0 kilometers away from Yigo, Guam







STORIES FROM OUR PARTNERS